Arctic Village, AK

2:32 PM AKST on February 24, 2017 (GMT -0900)
Arctic Village

Weather History for PARC - July, 2013

Change the Weather History Date:

Monday, July 8, 2013

  Actual Average Record
Temperature  
Mean Temperature 56 °F -  
Max Temperature 62 °F 69 °F 80 °F (1989)
Min Temperature 51 °F 46 °F 37 °F (2001)
Degree Days  
Heating Degree Days 8    
Growing Degree Days 6 (Base 50)    
Moisture  
Dew Point 50 °F    
Average Humidity 86    
Maximum Humidity 100    
Minimum Humidity 55    
Precipitation  
Precipitation 0.58 in - - ()
Sea Level Pressure  
Sea Level Pressure 29.63 in    
Wind  
Wind Speed 9 mph (NNE)    
Max Wind Speed 14 mph    
Max Gust Speed 21 mph    
Visibility 9 miles    
Events      
Averages and records for this station are not official NWS values.
T = Trace of Precipitation, MM = Missing Value Source: NWS Daily Summary

Daily Weather History Graph

Daily Weather History Graph

Search for Another Location

Airport or City:

Trip Planner

Search our weather history database for the weather conditions in past years. The results will help you decide how hot, cold, wet, or windy it might be!

Date:

Astronomy

Jul. 08, 2013 Rise Set
Actual Time 2:19 AM AKDT 1:15 AM AKDT
Civil Twilight Sun does not rise Sun does not rise
Nautical Twilight Sun does not rise Sun does not rise
Astronomical Twilight Sun does not rise Sun does not rise
Moon 4:27 AM AKDT (7/8) 11:26 PM AKDT (7/8)
Length of Visible Light 24h 00m
Length of Day
22h 55m
New Moon, 0% of the Moon is Illuminated
Jul 8
New Moon
Jul 15
First Quarter
Jul 22
Full
Jul 29
Last Quarter
Aug 6
New

Hourly Weather History & Observations

Time (AKDT) Temp. Dew Point Humidity Pressure Visibility Wind Dir Wind Speed Gust Speed Precip Events Conditions
12:16 AM 59.0 °F 42.8 °F 55% 29.63 in 10.0 mi NNE 9.2 mph - N/A   Overcast
12:36 AM 59.0 °F 42.8 °F 55% 29.63 in 10.0 mi NNE 9.2 mph - N/A   Mostly Cloudy
12:56 AM 57.2 °F 42.8 °F 59% 29.63 in 10.0 mi NE 8.1 mph - N/A   Mostly Cloudy
1:16 AM 57.2 °F 42.8 °F 59% 29.63 in 10.0 mi NE 8.1 mph - N/A   Overcast
1:36 AM 57.2 °F 46.4 °F 67% 29.63 in 10.0 mi ENE 9.2 mph - N/A   Overcast
1:56 AM 55.4 °F 48.2 °F 77% 29.64 in 10.0 mi East 13.8 mph 18.4 mph N/A   Overcast
2:16 AM 53.6 °F 48.2 °F 82% 29.64 in 10.0 mi ESE 13.8 mph - N/A   Overcast
2:36 AM 53.6 °F 50.0 °F 88% 29.64 in 10.0 mi ENE 6.9 mph - N/A   Overcast
2:56 AM 51.8 °F 50.0 °F 94% 29.64 in 10.0 mi NNE 6.9 mph - N/A   Overcast
3:16 AM 51.8 °F 50.0 °F 94% 29.64 in 10.0 mi NNE 8.1 mph - 0.02 in   Overcast
3:36 AM 51.8 °F 50.0 °F 94% 29.64 in 9.0 mi NNW 3.5 mph - 0.03 in   Overcast
3:56 AM 51.8 °F 50.0 °F 94% 29.63 in 8.0 mi North 9.2 mph - 0.05 in   Mostly Cloudy
4:16 AM 51.8 °F 50.0 °F 94% 29.64 in 10.0 mi NE 8.1 mph - N/A   Overcast
4:36 AM 51.8 °F 50.0 °F 94% 29.64 in 10.0 mi North 6.9 mph - N/A   Overcast
4:56 AM 51.8 °F 48.2 °F 88% 29.64 in 10.0 mi NNE 6.9 mph - N/A   Overcast
5:16 AM 51.8 °F 50.0 °F 94% 29.63 in 10.0 mi North 10.4 mph - N/A   Overcast
5:36 AM 51.8 °F 48.2 °F 88% 29.63 in 6.0 mi North 11.5 mph - 0.03 in   Overcast
5:56 AM 51.8 °F 50.0 °F 94% 29.63 in 10.0 mi North 8.1 mph - 0.04 in   Overcast
6:16 AM 51.8 °F 48.2 °F 88% 29.63 in 10.0 mi North 6.9 mph - N/A   Overcast
6:36 AM 51.8 °F 48.2 °F 88% 29.63 in 10.0 mi North 8.1 mph - N/A   Overcast
6:56 AM 51.8 °F 48.2 °F 88% 29.63 in 7.0 mi North 10.4 mph - N/A   Overcast
7:16 AM 51.8 °F 48.2 °F 88% 29.62 in 10.0 mi North 11.5 mph 17.3 mph N/A   Overcast
7:36 AM 51.8 °F 48.2 °F 88% 29.62 in 10.0 mi North 12.7 mph - N/A   Overcast
7:56 AM 51.8 °F 48.2 °F 88% 29.62 in 10.0 mi North 10.4 mph 18.4 mph N/A   Overcast
8:16 AM 51.8 °F 48.2 °F 88% 29.63 in 10.0 mi North 9.2 mph - N/A   Overcast
8:36 AM 51.8 °F 48.2 °F 88% 29.63 in 10.0 mi North 8.1 mph - N/A   Overcast
8:56 AM 51.8 °F 48.2 °F 88% 29.63 in 10.0 mi NNE 8.1 mph - N/A   Overcast
9:16 AM 51.8 °F 50.0 °F 94% 29.63 in 10.0 mi North 6.9 mph - N/A   Overcast
9:36 AM 51.8 °F 50.0 °F 94% 29.63 in 10.0 mi North 8.1 mph - N/A   Overcast
9:56 AM 51.8 °F 50.0 °F 94% 29.63 in 10.0 mi North 8.1 mph - N/A   Overcast
10:16 AM 53.6 °F 51.8 °F 94% 29.63 in 10.0 mi North 8.1 mph - N/A   Overcast
10:36 AM 53.6 °F 50.0 °F 88% 29.63 in 10.0 mi North 6.9 mph - N/A   Overcast
10:56 AM 53.6 °F 51.8 °F 94% 29.63 in 10.0 mi North 5.8 mph - N/A   Overcast
11:16 AM 55.4 °F 51.8 °F 88% 29.63 in 10.0 mi North 8.1 mph - N/A   Overcast
11:36 AM 55.4 °F 51.8 °F 88% 29.63 in 10.0 mi North 6.9 mph - N/A   Overcast
11:56 AM 55.4 °F 51.8 °F 88% 29.63 in 10.0 mi North 9.2 mph - N/A   Overcast
12:16 PM 57.2 °F 51.8 °F 82% 29.63 in 10.0 mi NNE 5.8 mph - N/A   Overcast
12:36 PM 57.2 °F 51.8 °F 82% 29.63 in 10.0 mi North 10.4 mph - N/A   Overcast
12:56 PM 59.0 °F 51.8 °F 77% 29.62 in 10.0 mi North 6.9 mph - N/A   Overcast
1:16 PM 60.8 °F 50.0 °F 68% 29.62 in 10.0 mi North 9.2 mph - N/A   Scattered Clouds
1:36 PM 60.8 °F 51.8 °F 72% 29.62 in 10.0 mi North 8.1 mph - N/A   Scattered Clouds
1:56 PM 62.6 °F 50.0 °F 63% 29.61 in 10.0 mi NE 9.2 mph - N/A   Mostly Cloudy
2:16 PM 57.2 °F 50.0 °F 77% 29.61 in 8.0 mi NNE 8.1 mph 20.7 mph 0.04 in   Overcast
2:36 PM 59.0 °F 53.6 °F 82% 29.61 in 10.0 mi North 6.9 mph - 0.04 in   Mostly Cloudy
2:56 PM 60.8 °F 51.8 °F 72% 29.61 in 10.0 mi NE 8.1 mph - 0.04 in   Mostly Cloudy
3:16 PM 60.8 °F 53.6 °F 77% 29.61 in 10.0 mi ENE 13.8 mph - N/A   Overcast
3:36 PM 57.2 °F 51.8 °F 82% 29.62 in 10.0 mi East 9.2 mph - 0.01 in   Overcast
3:56 PM 55.4 °F 53.6 °F 94% 29.62 in 10.0 mi NE 8.1 mph - 0.01 in   Overcast
4:16 PM 57.2 °F 53.6 °F 88% 29.62 in 10.0 mi ENE 10.4 mph - N/A   Overcast
4:36 PM 57.2 °F 53.6 °F 88% 29.62 in 10.0 mi ENE 12.7 mph - N/A   Overcast
4:56 PM 57.2 °F 53.6 °F 88% 29.62 in 10.0 mi ENE 8.1 mph - N/A   Overcast
5:16 PM 57.2 °F 51.8 °F 82% 29.63 in 10.0 mi ENE 6.9 mph - N/A   Overcast
5:36 PM 57.2 °F 51.8 °F 82% 29.63 in 10.0 mi East 8.1 mph - N/A   Overcast
5:56 PM 55.4 °F 51.8 °F 88% 29.63 in 10.0 mi ESE 10.4 mph - N/A   Overcast
6:16 PM 55.4 °F 51.8 °F 88% 29.63 in 10.0 mi East 6.9 mph - 0.01 in   Overcast
6:36 PM 55.4 °F 51.8 °F 88% 29.63 in 10.0 mi ENE 6.9 mph - 0.01 in   Overcast
6:56 PM 55.4 °F 51.8 °F 88% 29.63 in 10.0 mi NE 5.8 mph - 0.01 in   Overcast
7:16 PM 53.6 °F 51.8 °F 94% 29.63 in 9.0 mi North 4.6 mph - 0.01 in   Overcast
7:36 PM 53.6 °F 53.6 °F 100% 29.62 in 7.0 mi North 4.6 mph - 0.02 in   Overcast
7:56 PM 53.6 °F 51.8 °F 94% 29.62 in 8.0 mi North 6.9 mph - 0.03 in   Overcast
8:16 PM 53.6 °F 51.8 °F 94% 29.62 in 7.0 mi NNE 8.1 mph - 0.04 in   Overcast
8:36 PM 53.6 °F 51.8 °F 94% 29.62 in 7.0 mi NE 6.9 mph - 0.12 in   Overcast
8:56 PM 53.6 °F 51.8 °F 94% 29.62 in 5.0 mi NE 10.4 mph - 0.17 in   Overcast
9:16 PM 53.6 °F 51.8 °F 94% 29.62 in 7.0 mi NNE 8.1 mph - 0.05 in   Overcast
9:36 PM 53.6 °F 51.8 °F 94% 29.62 in 8.0 mi NNE 5.8 mph - 0.09 in   Overcast
9:56 PM 53.6 °F 51.8 °F 94% 29.62 in 7.0 mi NNE 5.8 mph - 0.12 in   Overcast
10:16 PM 53.6 °F 51.8 °F 94% 29.63 in 4.0 mi NNE 8.1 mph - 0.04 in   Overcast
10:36 PM 53.6 °F 51.8 °F 94% 29.63 in 6.0 mi NNE 6.9 mph - 0.11 in   Overcast
10:56 PM 51.8 °F 51.8 °F 100% 29.63 in 9.0 mi NNE 6.9 mph - 0.11 in   Mostly Cloudy
11:16 PM 53.6 °F 51.8 °F 94% 29.63 in 10.0 mi NNE 8.1 mph - N/A   Overcast
11:36 PM 53.6 °F 51.8 °F 94% 29.64 in 10.0 mi ENE 11.5 mph - N/A   Overcast
11:56 PM 53.6 °F 51.8 °F 94% 29.65 in 10.0 mi ENE 9.2 mph - N/A   Overcast